Simultaneous Nadir Overpasses (SNOs) Predictions

Prediction of SNOs between AQUA and METOP-A Satellite Orbit:

Table of predicted SNOs for the next 14.0 days since TLE Epoch: 12/5/2020
Index Date (AQUA) Time (AQUA) Lat,Lon (AQUA) SZA (AQUA ) Date (METOP-A) Time (METOP-A) Lat,Lon (METOP-A) SZA (METOP-A ) Distance(km) Time Diff (sec)
1 12/07/2020 10:10:23 -76.85,-166.63 80.29 12/07/2020 10:09:38 -76.84,-166.50 80.30 3.69 45
2 12/07/2020 10:59:51 76.86, 0.95 99.74 12/07/2020 11:00:17 76.89, 1.02 99.75 3.26 26
3 12/10/2020 05:44:38 -76.86,-100.22 79.99 12/10/2020 05:44:00 -76.85,-100.11 80.00 2.79 38
4 12/10/2020 06:34:06 76.87, 67.35 100.04 12/10/2020 06:34:39 76.89, 67.39 100.05 2.48 33
5 12/13/2020 01:18:53 -76.87, -33.84 79.75 12/13/2020 01:18:22 -76.85, -33.74 79.76 3.14 31
6 12/13/2020 02:08:21 76.89, 133.72 100.29 12/13/2020 02:09:01 76.90, 133.75 100.28 1.01 40
7 12/15/2020 20:53:06 -76.85, 32.67 79.60 12/15/2020 20:52:43 -76.86, 32.62 79.58 1.54 23
8 12/15/2020 21:42:35 76.93,-159.96 100.49 12/15/2020 21:43:22 76.90,-159.90 100.45 3.40 47
9 12/18/2020 16:27:21 -76.89, 98.98 79.45 12/18/2020 16:27:05 -76.86, 98.98 79.47 3.07 16



Historial Predications of SNOs between AQUA and METOP-A
